Location: Alsip
(41.6689°N, 87.7387°W)
Time: 06:04:13
(UTC+00:00)

XW-2B - Pass Details

Date: 27 October 2021
Orbit: 504 x 522 km, 97.5° (Epoch: 30 November)

Event Time Altitude Azimuth Distance (km) Brightness Sun altitude
Rises 23:33:32 0° 186° (S) 2,606 ? -8.4°
Reaches altitude 10° 23:35:45 10° 196° (SSW) 1,722 ? -8.9°
Maximum altitude 23:39:09 34° 262° (W) 860 ? -9.5°
Drops below altitude 10° 23:42:34 10° 329° (NNW) 1,728 ? -10.1°
Sets 23:44:48 0° 339° (NNW) 2,617 ? -10.5°
